Morgantown, WV

11:05 PM EDT on April 27, 2017 (GMT -0400)
Morgantown Municipal-Hart

Weather History for KMGW - December, 2012

Change the Weather History Date:

Saturday, December 29, 2012

  Actual Average Record
Temperature  
Mean Temperature 32 °F 32 °F  
Max Temperature 34 °F 40 °F 69 °F (1984)
Min Temperature 30 °F 24 °F 6 °F (1976)
Degree Days  
Heating Degree Days 33 33  
Month to date heating degree days 663 871  
Since 1 July heating degree days 1784 1919  
Cooling Degree Days 0 0  
Month to date cooling degree days 0 0  
Year to date cooling degree days 1141 814  
Moisture  
Dew Point 31 °F    
Average Humidity 88    
Maximum Humidity 100    
Minimum Humidity 75    
Precipitation  
Precipitation 0.32 in 0.08 in 1.37 in (1954)
Month to date precipitation 5.22 2.74  
Year to date precipitation 35.69 41.66  
Sea Level Pressure  
Sea Level Pressure 29.72 in    
Wind  
Wind Speed 5 mph (WSW)    
Max Wind Speed 16 mph    
Max Gust Speed 24 mph    
Visibility 4 miles    
Events Rain , Snow    
T = Trace of Precipitation, MM = Missing Value Source: NWS Daily Summary

Daily Weather History Graph

Daily Weather History Graph

Search for Another Location

Airport or City:

Trip Planner

Search our weather history database for the weather conditions in past years. The results will help you decide how hot, cold, wet, or windy it might be!

Date:

Astronomy

Dec. 29, 2012 Rise Set
Actual Time 7:40 AM EST 5:04 PM EST
Civil Twilight 7:09 AM EST 5:34 PM EST
Nautical Twilight 6:35 AM EST 6:08 PM EST
Astronomical Twilight 6:03 AM EST 6:41 PM EST
Moon 6:35 PM EST (12/29) 8:12 AM EST (12/29)
Length of Visible Light 10h 24m
Length of Day
9h 24m
Full, 98% of the Moon is Illuminated
Dec 29
Full
Jan 4
Last Quarter
Jan 11
New
Jan 18
First Quarter
Jan 26
Full

Hourly Weather History & Observations

Time (EST) Temp. Windchill Dew Point Humidity Pressure Visibility Wind Dir Wind Speed Gust Speed Precip Events Conditions
12:53 AM 32.0 °F - 27.0 °F 82% 29.90 in 9.0 mi Calm Calm - N/A   Overcast
1:53 AM 34.0 °F - 27.0 °F 75% 29.86 in 10.0 mi Calm Calm - N/A   Overcast
2:53 AM 33.1 °F 28.7 °F 28.0 °F 82% 29.83 in 8.0 mi ESE 4.6 mph - N/A   Overcast
3:33 AM 32.0 °F 28.7 °F 30.2 °F 93% 29.75 in 3.0 mi NNE 3.5 mph - 0.00 in   Overcast
3:40 AM 32.0 °F 26.4 °F 30.2 °F 93% 29.74 in 5.0 mi ENE 5.8 mph - 0.00 in   Overcast
3:53 AM 32.0 °F 28.7 °F 30.0 °F 92% 29.76 in 9.0 mi NNE 3.5 mph - 0.00 in   Overcast
4:26 AM 33.8 °F - 30.2 °F 87% 29.70 in 2.5 mi Calm Calm - 0.00 in Snow Light Snow
4:36 AM 33.8 °F - 30.2 °F 87% 29.69 in 1.5 mi Calm Calm - 0.00 in Snow Light Snow
4:53 AM 33.1 °F - 30.9 °F 92% 29.72 in 1.8 mi Calm Calm - 0.00 in Snow Light Snow
5:06 AM 33.8 °F - 30.2 °F 87% 29.67 in 0.8 mi Calm Calm - 0.00 in Snow Light Snow
5:13 AM 33.8 °F - 30.2 °F 87% 29.67 in 1.0 mi Calm Calm - 0.00 in Snow Light Snow
5:24 AM 33.8 °F - 30.2 °F 87% 29.66 in 1.0 mi Calm Calm - 0.00 in Snow Light Snow
5:33 AM 33.8 °F - 30.2 °F 87% 29.66 in 1.2 mi Calm Calm - 0.00 in Snow Light Snow
5:53 AM 33.1 °F - 32.0 °F 96% 29.68 in 1.8 mi Calm Calm - 0.00 in Snow Light Snow
6:01 AM 33.8 °F - 32.0 °F 93% 29.65 in 2.0 mi Calm Calm - 0.01 in Snow Light Snow
6:10 AM 33.8 °F - 32.0 °F 93% 29.64 in 1.5 mi Calm Calm - 0.01 in Snow Light Snow
6:21 AM 33.8 °F - 32.0 °F 93% 29.65 in 1.2 mi Calm Calm - 0.01 in Snow Light Snow
6:27 AM 33.8 °F - 32.0 °F 93% 29.65 in 0.8 mi Calm Calm - 0.01 in Snow Light Snow
6:38 AM 33.8 °F - 32.0 °F 93% 29.65 in 1.0 mi Calm Calm - 0.01 in Snow Light Snow
6:46 AM 33.8 °F 30.8 °F 32.0 °F 93% 29.65 in 1.8 mi SSE 3.5 mph - 0.01 in Snow Light Snow
6:53 AM 33.1 °F - 32.0 °F 96% 29.68 in 2.0 mi Calm Calm - 0.01 in Snow Light Snow
7:03 AM 33.8 °F 30.8 °F 32.0 °F 93% 29.64 in 1.5 mi SSE 3.5 mph - 0.00 in Snow Light Snow
7:27 AM 33.8 °F - 32.0 °F 93% 29.64 in 2.5 mi Calm Calm - 0.02 in Rain Light Rain
7:33 AM 33.8 °F - 32.0 °F 93% 29.64 in 3.0 mi Calm Calm - 0.02 in Rain Light Freezing Rain
7:45 AM 33.8 °F - 32.0 °F 93% 29.64 in 2.5 mi Calm Calm - 0.04 in Rain Light Freezing Rain
7:53 AM 33.1 °F - 32.0 °F 96% 29.67 in 3.0 mi Calm Calm - 0.05 in   Overcast
8:18 AM 33.8 °F - 32.0 °F 93% 29.63 in 2.0 mi Calm Calm - 0.02 in   Overcast
8:31 AM 33.8 °F - 32.0 °F 93% 29.63 in 3.0 mi Calm Calm - 0.03 in   Overcast
8:53 AM 34.0 °F - 32.0 °F 92% 29.66 in 4.0 mi Calm Calm - 0.05 in   Overcast
9:05 AM 33.8 °F - 32.0 °F 93% 29.63 in 1.8 mi Calm Calm - 0.01 in Snow Light Snow
9:14 AM 33.8 °F 28.6 °F 32.0 °F 93% 29.63 in 3.0 mi SSW 5.8 mph - 0.03 in Snow Light Snow
9:33 AM 33.8 °F 28.6 °F 33.8 °F 100% 29.63 in 3.0 mi SSW 5.8 mph - 0.05 in   Overcast
9:42 AM 33.8 °F 28.6 °F 33.8 °F 100% 29.63 in 2.5 mi SSW 5.8 mph - 0.06 in Snow Light Snow
9:50 AM 33.8 °F 30.8 °F 33.8 °F 100% 29.63 in 4.0 mi SSW 3.5 mph - 0.08 in   Overcast
9:53 AM 34.0 °F 29.8 °F 33.1 °F 96% 29.67 in 5.0 mi SSW 4.6 mph - 0.08 in   Overcast
10:53 AM 34.0 °F 28.8 °F 33.1 °F 96% 29.69 in 6.0 mi SSW 5.8 mph - 0.07 in   Overcast
11:27 AM 33.8 °F 27.7 °F 32.0 °F 93% 29.65 in 1.8 mi SSW 6.9 mph - 0.02 in Snow Light Snow
11:46 AM 33.8 °F 27.0 °F 32.0 °F 93% 29.65 in 0.8 mi SSW 8.1 mph - 0.03 in Snow Light Snow
11:53 AM 33.1 °F 27.7 °F 32.0 °F 96% 29.68 in 0.8 mi SSW 5.8 mph - 0.04 in Snow Light Snow
12:00 PM 33.8 °F 27.7 °F 32.0 °F 93% 29.65 in 1.2 mi SSW 6.9 mph - 0.00 in Snow Light Snow
12:24 PM 33.8 °F 28.6 °F 32.0 °F 93% 29.65 in 2.0 mi SW 5.8 mph - 0.01 in Snow Light Snow
12:53 PM 34.0 °F 28.0 °F 32.0 °F 92% 29.68 in 2.0 mi Variable 6.9 mph - 0.01 in Snow Light Snow
1:10 PM 33.8 °F 28.6 °F 32.0 °F 93% 29.65 in 4.0 mi SW 5.8 mph - 0.01 in Snow Light Snow
1:53 PM 34.0 °F 28.8 °F 32.0 °F 92% 29.69 in 9.0 mi West 5.8 mph - 0.01 in   Overcast
2:40 PM 33.8 °F 28.6 °F 30.2 °F 87% 29.69 in 8.0 mi West 5.8 mph - N/A   Overcast
2:53 PM 33.1 °F 26.9 °F 30.0 °F 89% 29.72 in 8.0 mi West 6.9 mph - N/A   Overcast
3:53 PM 32.0 °F 25.6 °F 28.9 °F 88% 29.77 in 7.0 mi West 6.9 mph 17.3 mph N/A   Overcast
4:53 PM 32.0 °F 24.8 °F 28.0 °F 85% 29.81 in 5.0 mi West 8.1 mph 19.6 mph N/A   Overcast
5:53 PM 32.0 °F 24.2 °F 28.0 °F 85% 29.84 in 8.0 mi West 9.2 mph - N/A   Overcast
6:53 PM 32.0 °F 24.2 °F 28.0 °F 85% 29.87 in 9.0 mi West 9.2 mph 17.3 mph N/A   Overcast
7:53 PM 32.0 °F 23.0 °F 28.0 °F 85% 29.89 in 6.0 mi West 11.5 mph 16.1 mph 0.00 in Snow Light Snow
8:53 PM 30.9 °F 21.7 °F 28.0 °F 89% 29.91 in 5.0 mi West 11.5 mph 17.3 mph 0.00 in Snow Light Snow
9:53 PM 30.9 °F 22.8 °F 28.0 °F 89% 29.93 in 4.0 mi West 9.2 mph 16.1 mph 0.00 in Snow Light Snow
10:53 PM 30.9 °F 22.8 °F 27.0 °F 85% 29.95 in 6.0 mi West 9.2 mph 19.6 mph 0.00 in Snow Light Snow
11:27 PM 30.2 °F 23.4 °F 26.6 °F 86% 29.93 in 2.0 mi West 6.9 mph 17.3 mph 0.00 in Snow Light Snow
11:53 PM 30.0 °F 22.4 °F 27.0 °F 88% 29.97 in 2.5 mi West 8.1 mph - 0.00 in Snow Light Snow